• In Czech Republic
  • List of Countries
  • For 7 days
  • Water Temperature
  • Satellite Maps
  • Weather Map
  • Weather Widgets
  • user-avatar
    Login

    Hourly Weather Tibissa

    Today, 18 January, Thursday

    Time Temperature Precipitation Wind Pressure Humidity
    00:00 +6°C° 0 mm 4 mps 689 mmHg 89%
    01:00 +7°C° 0 mm 3 mps 689 mmHg 93%
    02:00 +6°C° 0 mm 2 mps 689 mmHg 93%
    03:00 +6°C° 0 mm 2 mps 688 mmHg 94%
    04:00 +6°C° 0 mm 2 mps 688 mmHg 94%
    05:00 +5°C° 0 mm 2 mps 688 mmHg 94%
    06:00 +6°C° 0 mm 1 mps 689 mmHg 94%
    07:00 +6°C° 0 mm 1 mps 689 mmHg 93%
    08:00 +7°C° 0 mm 1 mps 689 mmHg 86%
    09:00 +8°C° 0 mm 1 mps 690 mmHg 79%
    10:00 +10°C° 0 mm 1 mps 690 mmHg 72%
    11:00 +11°C° 0 mm 1 mps 690 mmHg 65%
    12:00 +12°C° 0 mm 1 mps 690 mmHg 57%
    13:00 +13°C° 0 mm 2 mps 690 mmHg 49%
    14:00 +14°C° 0 mm 2 mps 690 mmHg 48%
    15:00 +13°C° 0 mm 3 mps 690 mmHg 46%
    16:00 +14°C° 0 mm 3 mps 689 mmHg 45%
    17:00 +12°C° 0 mm 3 mps 689 mmHg 51%
    18:00 +11°C° 0 mm 3 mps 689 mmHg 58%
    19:00 +9°C° 0 mm 3 mps 688 mmHg 64%
    20:00 +9°C° 0 mm 3 mps 688 mmHg 69%
    21:00 +8°C° 0 mm 3 mps 688 mmHg 73%
    22:00 +8°C° 0 mm 3 mps 688 mmHg 77%
    23:00 +7°C° 0 mm 3 mps 688 mmHg 79%

    Tomorrow, 19 January, Friday

    Time Temperature Precipitation Wind Pressure Humidity
    00:00 +7°C° 0 mm 3 mps 687 mmHg 82%
    01:00 +5°C° 0 mm 3 mps 687 mmHg 84%
    02:00 +6°C° 0 mm 2 mps 686 mmHg 84%
    03:00 +6°C° 0 mm 2 mps 686 mmHg 84%
    04:00 +6°C° 0 mm 2 mps 685 mmHg 84%
    05:00 +5°C° 0 mm 2 mps 685 mmHg 82%
    06:00 +5°C° 0 mm 2 mps 685 mmHg 80%
    07:00 +5°C° 0 mm 2 mps 685 mmHg 79%
    08:00 +8°C° 0 mm 1 mps 685 mmHg 69%
    09:00 +9°C° 0 mm 1 mps 685 mmHg 59%
    10:00 +11°C° 0 mm 1 mps 685 mmHg 49%
    11:00 +12°C° 0 mm 1 mps 685 mmHg 44%
    12:00 +14°C° 0 mm 1 mps 685 mmHg 39%
    13:00 +15°C° 0 mm 1 mps 685 mmHg 33%
    14:00 +15°C° 0 mm 1 mps 684 mmHg 33%
    15:00 +16°C° 0 mm 2 mps 684 mmHg 32%
    16:00 +16°C° 0 mm 2 mps 684 mmHg 31%
    17:00 +14°C° 0 mm 3 mps 684 mmHg 38%
    18:00 +12°C° 0 mm 3 mps 684 mmHg 45%
    19:00 +11°C° 0 mm 4 mps 684 mmHg 52%
    20:00 +10°C° 0 mm 4 mps 684 mmHg 59%
    21:00 +8°C° 0 mm 4 mps 684 mmHg 67%
    22:00 +8°C° 0 mm 4 mps 684 mmHg 74%
    23:00 +7°C° 0 mm 5 mps 684 mmHg 78%

    Day after tomorrow, 20 January, Saturday

    Time Temperature Precipitation Wind Pressure Humidity
    00:00 +7°C° 0 mm 5 mps 684 mmHg 82%
    01:00 +6°C° 0 mm 5 mps 684 mmHg 86%
    02:00 +5°C° 0 mm 6 mps 684 mmHg 86%
    03:00 +5°C° 0 mm 6 mps 683 mmHg 86%
    04:00 +4°C° 0 mm 7 mps 683 mmHg 86%
    05:00 +4°C° 0 mm 8 mps 683 mmHg 86%
    06:00 +3°C° 0 mm 9 mps 684 mmHg 86%
    07:00 +3°C° 0 mm 9 mps 684 mmHg 85%
    08:00 +3°C° 0 mm 10 mps 684 mmHg 82%
    09:00 +5°C° 0 mm 10 mps 685 mmHg 78%
    10:00 +4°C° 0 mm 11 mps 686 mmHg 75%
    11:00 +6°C° 0 mm 11 mps 686 mmHg 73%
    12:00 +6°C° 0 mm 10 mps 686 mmHg 71%
    13:00 +6°C° 0 mm 10 mps 686 mmHg 70%
    14:00 +7°C° 0 mm 10 mps 685 mmHg 68%
    15:00 +7°C° 0 mm 9 mps 685 mmHg 66%
    16:00 +7°C° 0 mm 9 mps 685 mmHg 64%
    17:00 +6°C° 0 mm 8 mps 686 mmHg 68%
    18:00 +6°C° 0 mm 7 mps 686 mmHg 72%
    19:00 +5°C° 0 mm 6 mps 686 mmHg 76%
    20:00 +4°C° 0 mm 6 mps 686 mmHg 79%
    21:00 +4°C° 0 mm 6 mps 686 mmHg 82%
    22:00 +5°C° 0 mm 5 mps 687 mmHg 85%
    23:00 +4°C° 0 mm 6 mps 686 mmHg 85%

    21 January, Sunday

    Time Temperature Precipitation Wind Pressure Humidity
    00:00 +4°C° 0 mm 6 mps 686 mmHg 86%
    01:00 +3°C° 0 mm 6 mps 686 mmHg 86%
    02:00 +3°C° 0 mm 6 mps 686 mmHg 84%
    03:00 +3°C° 0 mm 6 mps 686 mmHg 81%
    04:00 +3°C° 0 mm 6 mps 686 mmHg 79%
    05:00 +3°C° 0 mm 6 mps 686 mmHg 77%
    06:00 +4°C° 0 mm 7 mps 686 mmHg 76%
    07:00 +4°C° 0 mm 8 mps 686 mmHg 74%
    08:00 +5°C° 0 mm 9 mps 687 mmHg 73%
    09:00 +6°C° 0 mm 10 mps 687 mmHg 72%
    10:00 +8°C° 0 mm 12 mps 688 mmHg 71%
    11:00 +8°C° 0 mm 13 mps 688 mmHg 69%
    12:00 +9°C° 0 mm 13 mps 688 mmHg 67%
    13:00 +9°C° 0 mm 14 mps 688 mmHg 65%
    14:00 +9°C° 0 mm 14 mps 688 mmHg 66%
    15:00 +9°C° 0 mm 14 mps 688 mmHg 67%
    16:00 +9°C° 0 mm 14 mps 688 mmHg 68%
    17:00 +8°C° 0 mm 13 mps 688 mmHg 73%
    18:00 +8°C° 0 mm 13 mps 688 mmHg 78%
    19:00 +7°C° 0 mm 12 mps 688 mmHg 82%
    20:00 +7°C° 0 mm 12 mps 689 mmHg 83%
    21:00 +7°C° 0 mm 11 mps 689 mmHg 84%
    22:00 +6°C° 0 mm 10 mps 689 mmHg 85%
    23:00 +6°C° 0 mm 9 mps 689 mmHg 86%

    22 January, Monday

    Time Temperature Precipitation Wind Pressure Humidity
    00:00 +6°C° 0 mm 8 mps 689 mmHg 87%
    01:00 +6°C° 0 mm 8 mps 689 mmHg 88%
    02:00 +6°C° 0 mm 8 mps 689 mmHg 88%
    03:00 +6°C° 0 mm 8 mps 689 mmHg 89%
    04:00 +6°C° 0 mm 8 mps 689 mmHg 89%
    05:00 +6°C° 0 mm 8 mps 689 mmHg 89%
    06:00 +6°C° 0 mm 8 mps 690 mmHg 89%
    07:00 +6°C° 0 mm 9 mps 690 mmHg 88%
    08:00 +6°C° 0 mm 9 mps 690 mmHg 84%
    09:00 +7°C° 0 mm 10 mps 690 mmHg 80%
    10:00 +8°C° 0 mm 10 mps 691 mmHg 76%
    11:00 +9°C° 0 mm 10 mps 691 mmHg 72%
    12:00 +11°C° 0 mm 10 mps 691 mmHg 67%
    13:00 +11°C° 0 mm 10 mps 691 mmHg 62%
    14:00 +11°C° 0 mm 9 mps 690 mmHg 62%
    15:00 +11°C° 0 mm 9 mps 690 mmHg 62%
    16:00 +11°C° 0 mm 9 mps 690 mmHg 62%
    17:00 +10°C° 0 mm 8 mps 690 mmHg 67%
    18:00 +9°C° 0 mm 6 mps 690 mmHg 72%
    19:00 +8°C° 0 mm 5 mps 690 mmHg 77%
    20:00 +8°C° 0 mm 5 mps 690 mmHg 80%
    21:00 +7°C° 0 mm 5 mps 690 mmHg 83%
    22:00 +7°C° 0 mm 4 mps 690 mmHg 85%
    23:00 +7°C° 0 mm 4 mps 690 mmHg 86%

    23 January, Tuesday

    Time Temperature Precipitation Wind Pressure Humidity
    00:00 +6°C° 0 mm 4 mps 690 mmHg 86%
    01:00 +6°C° 0 mm 4 mps 690 mmHg 86%
    02:00 +6°C° 0 mm 4 mps 690 mmHg 86%
    03:00 +6°C° 0 mm 4 mps 690 mmHg 86%
    04:00 +5°C° 0 mm 3 mps 690 mmHg 86%
    05:00 +5°C° 0 mm 3 mps 690 mmHg 86%
    06:00 +5°C° 0 mm 3 mps 690 mmHg 86%
    07:00 +5°C° 0 mm 3 mps 690 mmHg 86%
    08:00 +6°C° 0 mm 4 mps 691 mmHg 82%
    09:00 +7°C° 0 mm 5 mps 691 mmHg 77%
    10:00 +9°C° 0 mm 6 mps 692 mmHg 72%
    11:00 +9°C° 0 mm 6 mps 692 mmHg 70%
    12:00 +10°C° 0 mm 6 mps 692 mmHg 68%
    13:00 +11°C° 0 mm 6 mps 692 mmHg 65%
    14:00 +11°C° 0 mm 6 mps 692 mmHg 65%
    15:00 +12°C° 0 mm 5 mps 692 mmHg 64%
    16:00 +12°C° 0 mm 5 mps 692 mmHg 64%
    17:00 +11°C° 0 mm 4 mps 692 mmHg 69%
    18:00 +10°C° 0 mm 3 mps 692 mmHg 75%
    19:00 +9°C° 0 mm 2 mps 692 mmHg 81%
    20:00 +8°C° 0 mm 2 mps 692 mmHg 83%
    21:00 +9°C° 0 mm 1 mps 692 mmHg 86%
    22:00 +8°C° 0 mm 1 mps 692 mmHg 88%
    23:00 +8°C° 0 mm 1 mps 692 mmHg 89%
    Show more